Regional Weather Roundup
Issued by NWS

Home | Current Version | Previous Version | Text Only | Print | Product List | Glossary On
Versions: 1 2 3 4 5 6 7 8 9 10 11 12 13 14 15 16 17 18 19 20 21 22 23 24 25 26 27 28 29 30 31 32 33 34 35 36 37 38 39 40 41 42 43 44 45 46 47 48 49 50
000
ASUS43 KIND 200259
RWRIN

WEATHER ROUNDUP FOR INDIANA
NATIONAL WEATHER SERVICE INDIANAPOLIS IN
1000 PM EST SUN FEB 19 2017

NOTE: "FAIR" INDICATES FEW OR NO CLOUDS BELOW 12,000 FEET WITH NO
SIGNIFICANT WEATHER AND/OR OBSTRUCTIONS TO VISIBILITY.

* - STATION DOES NOT REPORT WEATHER SUCH AS PRECIPITATION OR FOG.

+ - STATION NOT QUALITY CONTROLLED BY THE NATIONAL WEATHER SERVICE.
    USE DATA WITH CAUTION...ESPECIALLY DEWPOINT AND RELATIVE
    HUMIDITY OBSERVATIONS.

INZ001>003-010>013-019-020-200400-
NORTHWEST INDIANA

CITY           SKY/WX    TMP DP  RH WIND       PRES   REMARKS
GARY /AIRPORT/ PTCLDY    37  32  81 CALM      30.10R
KNOX *+        CLOUDY    39  18  41 CALM      30.12R
MONTICELLO +   CLEAR     45  41  86 CALM      30.11R

$$

LMZ046-743>745-200400-
SOUTHERN LAKE MICHIGAN

STATION/POSITION TIME  TEMP    WIND        PRES    WAVE
                       AIR SEA DIR/SP/G            HT
                 (UTC) (F)     (DEG/KT/KT) (MB)    (FT)
BURNS HARBOR     0240   52      CALM  /  2 1020.0R
MICHIGAN CITY    0230   51     110/  4/  5   N/A

$$

INZ004-005-014>016-021>024-200400-
NORTH CENTRAL INDIANA

CITY           SKY/WX    TMP DP  RH WIND       PRES   REMARKS
GOSHEN         CLOUDY    43  31  62 CALM      30.13R
PERU/GRISSOM   CLEAR     45  45 100 SE3       30.11R
SOUTH BEND     CLOUDY    40  26  57 NE3       30.13R
WARSAW +       CLOUDY    41  32  70 CALM      30.13R

$$

INZ006>009-017-018-025>027-200400-
NORTHEAST INDIANA

CITY           SKY/WX    TMP DP  RH WIND       PRES   REMARKS
ANGOLA *+      CLEAR     39  34  81 CALM      30.12R
FORT WAYNE     CLOUDY    43  34  70 SW3       30.13R
KENDALLVILLE + CLOUDY    45  35  67 CALM      30.13R

$$

INZ028-029-035-036-043>045-051>053-200400-
WEST CENTRAL INDIANA

CITY           SKY/WX    TMP DP  RH WIND       PRES   REMARKS
LAFAYETTE      CLEAR     43  38  82 VRB6      30.11R
TERRE HAUTE    CLOUDY    44  41  89 S3        30.13R

$$

INZ030>032-037>040-046>048-054>057-064-065-200400-
CENTRAL INDIANA

CITY           SKY/WX    TMP DP  RH WIND       PRES   REMARKS
COLUMBUS       CLEAR     45  45 100 SE5       30.15R
FRANKFORT +    CLEAR     47  42  84 S5        30.14R
GREENWOOD *+   CLEAR     51  46  84 S3        30.14R
INDIANAPOLIS   PTCLDY    50  45  83 SE7       30.13R
-EAGLE CREEK   CLEAR     50  43  77 CALM      30.13R
KOKOMO +       PTCLDY    43  41  93 SE7       30.13R
MT COMFORT *+  CLEAR     46  45  93 SE5       30.14R
SHELBYVILLE    CLEAR     47  42  83 S8        30.14R

$$

INZ033-034-041-042-049-050-058-059-200400-
EAST CENTRAL INDIANA

CITY           SKY/WX    TMP DP  RH WIND       PRES   REMARKS
MUNCIE         CLEAR     51  43  74 S5        30.14R

$$

INZ060-061-067>069-081>083-085>088-200400-
SOUTHWEST INDIANA

CITY           SKY/WX    TMP DP  RH WIND       PRES   REMARKS
EVANSVILLE     CLEAR     48  46  93 NE5       30.13R FOG
HUNTINGBURG *+ MOCLDY    46  46 100 SE7       30.14R VSB<1/4

$$

INZ062-063-066-070>080-084-089>092-200400-
SOUTH CENTRAL AND SOUTHEAST INDIANA

CITY           SKY/WX    TMP DP  RH WIND       PRES   REMARKS
BLOOMINGTON    CLEAR     44  40  85 CALM      30.13R
MADISON *+       N/A     43  41  93 CALM      30.18R VSB 1/2
SEYMOUR +      CLEAR     45  43  93 CALM      30.15R FOG

$$





USA.gov is the U.S. government's official web portal to all federal, state and local government web resources and services.